CZ-2C DEB

基本信息
目录编号:
39628
目录名称:
CZ-2C DEB
国际标识:
2014-014E
轨道中心:
EARTH
物体状态:
在轨
发射日期:
2014-03-31 UTC
轨道信息
数据来源: 国际轨道数据
星历时间: 2026-09-12T10:58:04+0800
半长轴: 6961.484km
偏心率: 0.0049952
轨道倾角: 98.229°
近地点辐角: 150.264°
升交点赤经: 16.349°
平近点角: 210.143°
近地点: 548.572km
远地点: 618.122km
周期: 96.341分钟
每日圈数: 14.946864
详细信息
发射场:
JSC
轨道高度:
LEO
数据来源:
AOE Integration Group
参考系:
TEME
时间系统:
UTC
历元类型:
SGP4
2D轨道图
3D轨道图
轨道高度分析图
轨道倾角分析图
轨道综合分析图
查看轨道综合分析图